Location: Decatur Area Astronomy Club
(40.0275°N, 88.7810°W)
Time: 18:26:49
(UTC-06:00)

Amateur Radio Satellites - All Passes

Search period start: 26 February 2015 17:56
Search period end: 27 February 2015 17:56
Location: Decatur Area Astronomy Club, 40.0275°N, 88.7810°W

Satellite Date Start Highest point End Downlink Frequencies (MHz)
Time Altitude Azimuth
VERMONT LUNAR 26 Feb 17:58:39 18:00:17 13° 147° (SSE) 18:02:02 437.305
M-CUBED/EXP-1 PRIME 26 Feb 18:00:22 18:01:49 11° 299° (WNW) 18:03:04 437.505
BRITE-PL 26 Feb 18:05:30 18:07:43 13° 62° (ENE) 18:10:13 437.365/2234.400
STRAND 1 26 Feb 18:06:06 18:10:21 26° 94° (E) 18:14:40 437.568
MOZHAYETS 4 26 Feb 18:06:18 18:09:14 16° 294° (WNW) 18:11:58
AUBIESAT-1 26 Feb 18:06:31 18:07:46 11° 299° (WNW) 18:08:50 437.475
CUBESAT XI-V 26 Feb 18:13:38 18:18:14 51° 99° (E) 18:22:49 437.345
GOMX 1 26 Feb 18:33:08 18:36:00 15° 65° (ENE) 18:39:03 467.674
AIST 1 26 Feb 18:45:59 18:50:25 82° 264° (W) 18:54:49
AIST 2 26 Feb 18:52:22 18:56:35 73° 120° (ESE) 19:00:53 435.215
COMPASS 1 26 Feb 18:56:29 18:57:41 11° 65° (ENE) 18:59:05 437.405
HO-68 26 Feb 18:57:19 19:03:42 38° 65° (ENE) 19:10:13 435.675
AAUSAT CUBESAT 2 26 Feb 18:58:42 18:58:48 10° 64° (ENE) 18:59:08 437.432
BEESAT 3 26 Feb 19:00:47 19:04:28 31° 310° (NW) 19:08:12 437.485
Cubesat XI-IV 26 Feb 19:05:43 19:07:42 12° 273° (W) 19:09:18 437.490
PHONESAT 2.4 26 Feb 19:06:42 19:09:28 21° 150° (SSE) 19:12:18 2401.200-2431.200
CANX-2 26 Feb 19:10:26 19:13:54 26° 70° (ENE) 19:17:26 2200.000
SEEDS 26 Feb 19:14:50 19:18:02 22° 69° (ENE) 19:21:20 437.485
PRISM 26 Feb 19:18:34 19:22:13 28° 290° (WNW) 19:25:47 437.425
BEESAT 2 26 Feb 19:21:35 19:25:00 24° 313° (NW) 19:28:24 435.950
DOVE 4 26 Feb 19:27:45 19:32:21 33° 71° (ENE) 19:36:52 437.250
CUTE 1.7 + AOD 2 26 Feb 19:29:15 19:33:08 38° 72° (ENE) 19:37:04 437.475
VERMONT LUNAR 26 Feb 19:34:23 19:37:47 50° 161° (SSE) 19:41:10 437.305
BRITE-PL 26 Feb 19:39:51 19:45:34 86° 77° (ENE) 19:51:10 437.365/2234.400
STRAND 1 26 Feb 19:44:56 19:49:39 36° 291° (WNW) 19:54:17 437.568
Oscar 11 26 Feb 19:50:06 19:53:10 20° 68° (ENE) 19:56:21 145.826/435.025
O/OREOS (USA 219) 26 Feb 19:51:10 19:55:48 81° 68° (ENE) 20:00:22 437.305
CUBESAT XI-V 26 Feb 19:52:14 19:55:19 17° 294° (WNW) 19:58:13 437.345
DX 1 26 Feb 20:06:55 20:09:35 16° 66° (ENE) 20:12:23 434.975-435.025
GOMX 1 26 Feb 20:08:09 20:13:38 75° 258° (WSW) 20:18:57 467.674
CINEMA 3 26 Feb 20:09:20 20:13:57 45° 73° (ENE) 20:18:27 145.822/145.860
PCSat 26 Feb 20:12:34 20:16:09 19° 107° (ESE) 20:19:57 145.827
ZACube-1 26 Feb 20:24:26 20:27:56 24° 70° (ENE) 20:31:27 437.345
FUNcube-1 26 Feb 20:24:54 20:28:22 24° 70° (ENE) 20:31:52 145.935
COMPASS 1 26 Feb 20:28:49 20:32:56 62° 260° (W) 20:37:04 437.405
DELFI C3 26 Feb 20:29:25 20:33:10 40° 73° (ENE) 20:36:59 145.870
AAUSAT CUBESAT 2 26 Feb 20:29:49 20:33:57 70° 259° (WSW) 20:38:06 437.432
UWE-3 26 Feb 20:32:43 20:36:49 36° 72° (ENE) 20:40:51 435.000/436.395/437.385
AIST 2 26 Feb 20:33:15 20:35:44 15° 319° (NW) 20:38:07 435.215
UKube-1 26 Feb 20:40:50 20:44:45 34° 71° (ENE) 20:48:44 .
PHONESAT 2.4 26 Feb 20:44:01 20:47:38 69° 165° (SSE) 20:51:15 2401.200-2431.200
HO-68 26 Feb 20:44:42 20:51:24 41° 262° (W) 20:58:03 435.675
CANX-2 26 Feb 20:46:16 20:49:48 25° 266° (W) 20:53:17 2200.000
SEEDS 26 Feb 20:50:03 20:53:45 29° 265° (W) 20:57:23 437.485
CUBEBUG 2 26 Feb 21:00:08 21:04:45 87° 81° (E) 21:09:15 437.445
HUMSAT D 26 Feb 21:02:53 21:06:37 31° 71° (ENE) 21:10:22 437.325/437.525
DOVE 4 26 Feb 21:05:31 21:10:06 29° 265° (W) 21:14:30 437.250
CUTE 1.7 + AOD 2 26 Feb 21:06:25 21:09:16 17° 269° (W) 21:11:59 437.475
VERMONT LUNAR 26 Feb 21:12:10 21:15:40 81° 356° (N) 21:19:09 437.305
BRITE-PL 26 Feb 21:22:20 21:24:48 12° 274° (W) 21:26:52 437.365/2234.400
AISAT 26 Feb 21:23:51 21:28:05 43° 72° (ENE) 21:32:23 437.250
Oscar 11 26 Feb 21:25:11 21:29:10 35° 263° (W) 21:33:07 145.826/435.025
GONETS M04 26 Feb 21:33:25 21:41:35 49° 90° (E) 21:49:51
ESTCUBE 1 26 Feb 21:34:50 21:38:33 26° 69° (ENE) 21:42:22 437.505/2401.250
VELOX 1 26 Feb 21:35:25 21:39:47 56° 74° (ENE) 21:44:13 145.980
DX 1 26 Feb 21:41:15 21:45:30 46° 261° (W) 21:49:46 434.975-435.025
CUBEBUG 1 26 Feb 21:43:28 21:47:16 29° 70° (ENE) 21:51:09 437.445
50 SAT 26 Feb 21:45:57 21:49:57 70° 75° (ENE) 21:53:56 437.505
CINEMA 3 26 Feb 21:47:53 21:51:22 19° 268° (W) 21:54:38 145.822/145.860
UNISAT 6 26 Feb 21:53:04 21:56:34 25° 95° (E) 22:00:12 437.425
DUCHIFAT 1 26 Feb 21:53:15 21:55:09 13° 90° (E) 21:57:16 145.980
PCSat 26 Feb 21:53:50 21:59:10 58° 302° (WNW) 22:04:32 145.827
ZACube-1 26 Feb 22:00:16 22:04:13 30° 264° (W) 22:08:02 437.345
FUNcube-1 26 Feb 22:00:41 22:04:37 30° 264° (W) 22:08:26 145.935
BUGSAT 1 26 Feb 22:05:43 22:07:43 13° 90° (E) 22:09:53 437.445
DELFI C3 26 Feb 22:06:15 22:08:38 15° 269° (W) 22:10:52 145.870
POLYITAN 1 26 Feb 22:07:13 22:10:18 20° 93° (E) 22:13:28 437.675
POPSAT HIP 1 26 Feb 22:09:59 22:13:10 21° 93° (E) 22:16:26 437.405
UWE-3 26 Feb 22:10:04 22:13:28 20° 267° (W) 22:16:43 435.000/436.395/437.385
UKube-1 26 Feb 22:17:46 22:21:02 20° 267° (W) 22:24:13 .
TIGRISAT 26 Feb 22:19:56 22:24:04 49° 99° (E) 22:28:15 435.000
PHONESAT 2.4 26 Feb 22:22:29 22:26:08 81° 1° (N) 22:29:45 2401.200-2431.200
ANTELSAT 26 Feb 22:30:55 22:35:12 69° 102° (ESE) 22:39:30 437.575/2403.000
SPROUT 26 Feb 22:33:30 22:37:01 25° 69° (ENE) 22:40:36 437.525
NANOSAT C BR1 26 Feb 22:34:21 22:38:20 39° 98° (E) 22:42:18 145.865
HUMSAT D 26 Feb 22:39:16 22:42:30 20° 267° (W) 22:45:36 437.325/437.525
CUSAT 1 26 Feb 22:45:36 22:48:28 14° 91° (E) 22:51:27 437.405
VERMONT LUNAR 26 Feb 22:50:09 22:53:38 72° 194° (SSW) 22:57:05 437.305
TISAT 1 26 Feb 22:52:44 22:56:40 37° 72° (ENE) 23:00:38 437.305
AISAT 26 Feb 23:01:56 23:04:58 17° 269° (W) 23:07:51 437.250
RS-15 26 Feb 23:04:26 23:14:36 49° 111° (ESE) 23:24:59 29.354- 29.394
QB50P1 26 Feb 23:05:49 23:10:06 86° 281° (W) 23:14:18 145.935-145.965
QB50P2 26 Feb 23:08:05 23:12:20 80° 284° (WNW) 23:16:33 145.880/145.840
ESTCUBE 1 26 Feb 23:11:26 23:15:22 29° 265° (W) 23:19:17 437.505/2401.250
VELOX 1 26 Feb 23:14:35 23:16:48 13° 271° (W) 23:18:48 145.980
CUBEBUG 1 26 Feb 23:19:57 23:23:38 25° 266° (W) 23:27:18 437.445
DUCHIFAT 1 26 Feb 23:27:16 23:31:22 49° 287° (WNW) 23:35:25 145.980
DANDE 26 Feb 23:29:36 23:35:50 31° 94° (E) 23:41:02 436.750
UNISAT 6 26 Feb 23:29:45 23:33:22 26° 290° (WNW) 23:36:57 437.425
GONETS M04 26 Feb 23:30:51 23:38:43 36° 290° (WNW) 23:46:27
BUGSAT 1 26 Feb 23:39:30 23:43:34 46° 287° (WNW) 23:47:30 437.445
SWISSCUBE 26 Feb 23:41:49 23:45:30 23° 67° (ENE) 23:49:19 437.505
PCSat 26 Feb 23:42:22 23:43:53 11° 324° (NW) 23:45:10 145.827
POLYITAN 1 26 Feb 23:42:32 23:46:21 32° 289° (WNW) 23:50:05 437.675
POPSAT HIP 1 26 Feb 23:45:23 23:49:09 31° 289° (WNW) 23:52:50 437.405
BEESAT 26 Feb 23:51:02 23:54:56 26° 68° (ENE) 23:58:57 436.000
TIGRISAT 26 Feb 23:58:06 00:00:30 14° 294° (WNW) 00:02:44 435.000
PHONESAT 2.4 27 Feb 00:01:01 00:04:34 54° 199° (SSW) 00:08:05 2401.200-2431.200
SPROUT 27 Feb 00:09:15 00:13:02 28° 265° (W) 00:16:46 437.525
ANTELSAT 27 Feb 00:10:20 00:11:31 11° 296° (WNW) 00:12:29 437.575/2403.000
NANOSAT C BR1 27 Feb 00:11:05 00:13:56 17° 293° (WNW) 00:16:38 145.865
ITUPSAT 1 27 Feb 00:14:53 00:19:25 44° 72° (ENE) 00:24:00 437.325
CUSAT 1 27 Feb 00:24:12 00:31:18 84° 280° (W) 00:36:40 437.405
VERMONT LUNAR 27 Feb 00:28:32 00:31:16 21° 209° (SSW) 00:33:57 437.305
TISAT 1 27 Feb 00:29:35 00:32:39 18° 268° (W) 00:35:35 437.305
ITAMSAT 1 27 Feb 01:06:50 01:09:45 15° 89° (E) 01:12:54 435.822/435.867
KKS-1 27 Feb 01:11:54 01:15:54 33° 70° (ENE) 01:19:57 437.445
DANDE 27 Feb 01:12:06 01:19:09 44° 283° (WNW) 01:24:38 436.750
RS-15 27 Feb 01:16:29 01:27:01 50° 314° (NW) 01:37:41 29.354- 29.394
Oscar 19 27 Feb 01:16:30 01:21:34 59° 100° (E) 01:26:38 437.125/150
SWISSCUBE 27 Feb 01:18:47 01:23:12 36° 263° (W) 01:27:37 437.505
STARS 27 Feb 01:28:16 01:32:11 32° 70° (ENE) 01:36:10 437.465
BEESAT 27 Feb 01:28:26 01:32:42 32° 264° (W) 01:36:57 436.000
SO-50 27 Feb 01:32:17 01:35:47 23° 112° (ESE) 01:39:30 436.795
YUBILEINY 27 Feb 01:37:51 01:42:33 16° 58° (ENE) 01:47:47 435.215
PHONESAT 2.4 27 Feb 01:40:31 01:42:35 14° 213° (SSW) 01:44:35 2401.200-2431.200
BEESAT 3 27 Feb 01:43:14 01:45:43 16° 42° (NE) 01:48:18 437.485
Gurwin Techsat 1B 27 Feb 01:52:14 01:56:56 32° 95° (E) 02:01:42 435.225
ITUPSAT 1 27 Feb 01:54:11 01:57:35 19° 268° (W) 02:00:51 437.325
BEESAT 2 27 Feb 02:03:32 02:06:39 20° 46° (NE) 02:09:49 435.950
CUSAT 1 27 Feb 02:12:24 02:14:33 11° 292° (WNW) 02:16:09 437.405
AO-7 27 Feb 02:43:20 02:48:46 20° 90° (E) 02:54:36 29.400- 29.500
ITAMSAT 1 27 Feb 02:44:36 02:49:47 62° 287° (WNW) 02:54:54 435.822/435.867
KKS-1 27 Feb 02:49:05 02:52:39 22° 267° (W) 02:56:05 437.445
Oscar 19 27 Feb 02:57:11 03:00:30 17° 296° (WNW) 03:03:38 437.125/150
STARS 27 Feb 03:05:11 03:08:44 22° 266° (W) 03:12:10 437.465
HORYU 2 27 Feb 03:05:12 03:09:26 43° 99° (E) 03:13:41 437.375
SO-50 27 Feb 03:11:44 03:16:06 41° 309° (NW) 03:20:37 436.795
M-CUBED/EXP-1 PRIME 27 Feb 03:12:36 03:15:54 86° 74° (ENE) 03:19:16 437.505
AIST 2 27 Feb 03:15:02 03:19:03 39° 52° (NE) 03:23:02 435.215
AUBIESAT-1 27 Feb 03:18:11 03:21:28 89° 87° (E) 03:24:51 437.475
BEESAT 3 27 Feb 03:20:09 03:24:15 61° 242° (WSW) 03:28:15 437.485
MOZHAYETS 4 27 Feb 03:29:13 03:33:32 44° 73° (ENE) 03:37:54
Gurwin Techsat 1B 27 Feb 03:32:13 03:36:54 31° 292° (WNW) 03:41:29 435.225
YUBILEINY 27 Feb 03:32:17 03:41:11 79° 81° (E) 03:50:02 435.215
RS-15 27 Feb 03:35:12 03:43:04 21° 345° (NNW) 03:50:55 29.354- 29.394
BEESAT 2 27 Feb 03:41:07 03:45:03 41° 244° (WSW) 03:48:54 435.950
JAS-2 27 Feb 04:13:00 04:20:16 64° 101° (E) 04:28:02 435.910
PRISM 27 Feb 04:34:02 04:36:40 17° 67° (ENE) 04:39:26 437.425
AO-7 27 Feb 04:34:17 04:42:37 83° 289° (WNW) 04:50:53 29.400- 29.500
HORYU 2 27 Feb 04:42:48 04:45:49 18° 294° (WNW) 04:48:42 437.375
AIST 2 27 Feb 04:54:17 04:57:26 20° 248° (WSW) 05:00:26 435.215
PCSat 27 Feb 05:00:11 05:03:33 17° 42° (NE) 05:07:04 145.827
MOZHAYETS 4 27 Feb 05:08:01 05:11:03 17° 269° (W) 05:13:56
CUBESAT XI-V 27 Feb 05:16:21 05:20:48 46° 73° (ENE) 05:25:19 437.345
STRAND 1 27 Feb 05:21:15 05:25:53 36° 69° (ENE) 05:30:36 437.568
YUBILEINY 27 Feb 05:30:53 05:37:08 21° 279° (W) 05:42:54 435.215
Cubesat XI-IV 27 Feb 05:39:48 05:44:39 35° 96° (E) 05:49:32 437.490
CUTE-I 27 Feb 05:49:51 05:54:57 42° 98° (E) 06:00:01 437.470
RS-15 27 Feb 05:52:39 06:00:58 23° 21° (NNE) 06:09:47 29.354- 29.394
JAS-2 27 Feb 05:58:56 06:04:55 28° 295° (WNW) 06:11:03 435.910
PRISM 27 Feb 06:08:02 06:11:54 39° 262° (W) 06:15:49 437.425
AO-7 27 Feb 06:28:51 06:34:21 19° 308° (NW) 06:39:29 29.400- 29.500
PCSat 27 Feb 06:42:17 06:47:45 84° 240° (WSW) 06:53:10 145.827
CUBESAT XI-V 27 Feb 06:55:23 06:58:33 17° 270° (W) 07:01:33 437.345
STRAND 1 27 Feb 07:00:50 07:05:11 26° 266° (W) 07:09:27 437.568
AIST 1 27 Feb 07:14:37 07:18:53 61° 95° (E) 07:23:13
Cubesat XI-IV 27 Feb 07:20:01 07:24:41 30° 293° (WNW) 07:29:14 437.490
CUTE-I 27 Feb 07:30:28 07:34:49 25° 294° (WNW) 07:39:01 437.470
GONETS M04 27 Feb 07:44:53 07:51:18 23° 64° (ENE) 07:58:06
BRITE-PL 27 Feb 07:47:03 07:50:57 27° 93° (E) 07:54:41 437.365/2234.400
RS-15 27 Feb 08:05:20 08:16:33 59° 50° (NE) 08:28:20 29.354- 29.394
GOMX 1 27 Feb 08:12:00 08:15:59 32° 95° (E) 08:19:49 467.674
HO-68 27 Feb 08:12:34 08:19:14 41° 98° (E) 08:25:58 435.675
COMPASS 1 27 Feb 08:13:49 08:17:01 21° 93° (E) 08:20:19 437.405
AAUSAT CUBESAT 2 27 Feb 08:14:36 08:17:33 19° 92° (E) 08:20:37 437.432
CANX-2 27 Feb 08:31:27 08:35:38 56° 100° (E) 08:39:48 2200.000
SEEDS 27 Feb 08:34:39 08:38:43 45° 99° (E) 08:42:47 437.485
DUCHIFAT 1 27 Feb 08:47:09 08:47:45 10° 64° (ENE) 08:48:34 145.980
CUTE 1.7 + AOD 2 27 Feb 08:50:37 08:54:53 85° 106° (ESE) 08:59:08 437.475
UNISAT 6 27 Feb 08:51:58 08:55:22 22° 69° (ENE) 08:58:49 437.425
CUBEBUG 2 27 Feb 08:53:19 08:56:01 17° 92° (E) 08:58:50 437.445
AIST 1 27 Feb 08:55:39 08:57:07 11° 293° (WNW) 08:58:20
BUGSAT 1 27 Feb 08:57:27 08:57:47 10° 63° (ENE) 08:58:24 437.445
POLYITAN 1 27 Feb 09:00:40 09:03:10 16° 66° (ENE) 09:05:49 437.675
POPSAT HIP 1 27 Feb 09:03:07 09:05:43 16° 67° (ENE) 09:08:28 437.405
DOVE 4 27 Feb 09:05:15 09:09:38 87° 98° (E) 09:13:49 437.250
Oscar 11 27 Feb 09:12:53 09:16:59 41° 98° (E) 09:21:05 145.826/435.025
TIGRISAT 27 Feb 09:18:10 09:22:20 41° 73° (ENE) 09:26:27 435.000
BRITE-PL 27 Feb 09:25:30 09:29:29 27° 292° (WNW) 09:33:10 437.365/2234.400
NANOSAT C BR1 27 Feb 09:26:40 09:30:20 29° 70° (ENE) 09:34:03 145.865
ANTELSAT 27 Feb 09:29:19 09:33:41 56° 74° (ENE) 09:37:59 437.575/2403.000
VELOX 1 27 Feb 09:29:20 09:30:31 11° 88° (E) 09:31:59 145.980
DX 1 27 Feb 09:30:32 09:34:23 30° 96° (E) 09:38:14 434.975-435.025
GONETS M04 27 Feb 09:40:28 09:49:12 75° 265° (W) 09:57:56
CINEMA 3 27 Feb 09:42:13 09:46:25 68° 285° (WNW) 09:50:31 145.822/145.860
DELFI C3 27 Feb 09:44:48 09:48:54 79° 102° (ESE) 09:52:59 145.870
COMPASS 1 27 Feb 09:49:06 09:52:47 30° 289° (WNW) 09:56:25 437.405
ZACube-1 27 Feb 09:49:10 09:53:14 51° 99° (E) 09:57:17 437.345
FUNcube-1 27 Feb 09:49:23 09:53:25 50° 99° (E) 09:57:29 145.935
AAUSAT CUBESAT 2 27 Feb 09:49:32 09:53:19 33° 288° (WNW) 09:57:04 437.432
GOMX 1 27 Feb 09:50:31 09:53:59 22° 293° (WNW) 09:57:13 467.674
QB50P1 27 Feb 09:57:47 10:02:02 65° 75° (ENE) 10:06:18 145.935-145.965
UWE-3 27 Feb 09:59:27 10:03:39 85° 105° (ESE) 10:07:47 435.000/436.395/437.385
QB50P2 27 Feb 10:00:12 10:04:28 71° 76° (ENE) 10:08:46 145.880/145.840
HO-68 27 Feb 10:00:23 10:06:56 39° 295° (WNW) 10:13:24 435.675
O/OREOS (USA 219) 27 Feb 10:02:31 10:07:04 76° 293° (WNW) 10:11:40 437.305
ISS 27 Feb 10:02:48 10:06:00 71° 142° (SE) 10:09:14 145.825
SO-50 27 Feb 10:03:39 10:07:28 22° 44° (NE) 10:11:22 436.795
UKube-1 27 Feb 10:04:44 10:09:05 71° 102° (ESE) 10:13:24 .
CANX-2 27 Feb 10:09:08 10:11:10 13° 294° (WNW) 10:13:00 2200.000
SEEDS 27 Feb 10:11:41 10:14:12 15° 293° (WNW) 10:16:35 437.485
RS-15 27 Feb 10:18:12 10:28:46 42° 250° (WSW) 10:39:30 29.354- 29.394
DUCHIFAT 1 27 Feb 10:18:47 10:23:04 74° 258° (WSW) 10:27:22 145.980
HUMSAT D 27 Feb 10:23:02 10:27:07 66° 101° (E) 10:31:12 437.325/437.525
UNISAT 6 27 Feb 10:28:00 10:32:02 32° 264° (W) 10:35:58 437.425
BUGSAT 1 27 Feb 10:28:29 10:32:44 76° 258° (WSW) 10:37:02 437.445
CUBEBUG 2 27 Feb 10:29:06 10:32:55 35° 288° (WNW) 10:36:42 437.445
POLYITAN 1 27 Feb 10:34:37 10:38:47 46° 261° (W) 10:42:56 437.675
POPSAT HIP 1 27 Feb 10:37:11 10:41:19 44° 261° (W) 10:45:26 437.405
Oscar 11 27 Feb 10:49:59 10:52:53 17° 293° (WNW) 10:55:40 145.826/435.025
AISAT 27 Feb 10:51:44 10:56:13 83° 284° (WNW) 11:00:39 437.250
TIGRISAT 27 Feb 10:56:18 10:59:19 17° 268° (W) 11:02:08 435.000
Oscar 19 27 Feb 10:58:57 10:59:10 10° 60° (ENE) 10:59:41 437.125/150
50 SAT 27 Feb 11:00:11 11:04:06 61° 285° (WNW) 11:07:59 437.505
NANOSAT C BR1 27 Feb 11:02:42 11:06:12 24° 266° (W) 11:09:39 145.865
VELOX 1 27 Feb 11:03:12 11:07:38 64° 286° (WNW) 11:12:01 145.980
ESTCUBE 1 27 Feb 11:04:07 11:08:39 62° 100° (E) 11:13:10 437.505/2401.250
CUSAT 1 27 Feb 11:05:50 11:08:27 46° 78° (ENE) 11:10:58 437.405
DX 1 27 Feb 11:06:59 11:10:31 24° 292° (WNW) 11:13:57 434.975-435.025
CUBEBUG 1 27 Feb 11:08:44 11:13:08 63° 101° (E) 11:17:29 437.445
ANTELSAT 27 Feb 11:08:52 11:10:54 12° 270° (W) 11:12:40 437.575/2403.000
ZACube-1 27 Feb 11:27:11 11:29:15 13° 294° (WNW) 11:31:06 437.345
FUNcube-1 27 Feb 11:27:20 11:29:25 13° 294° (WNW) 11:31:19 145.935
QB50P1 27 Feb 11:37:39 11:38:27 10° 272° (W) 11:38:57 145.935-145.965
ISS 27 Feb 11:40:16 11:42:43 19° 339° (NNW) 11:45:09 145.825
GONETS M04 27 Feb 11:40:55 11:44:45 13° 283° (WNW) 11:47:52
UKube-1 27 Feb 11:43:21 11:44:44 11° 297° (WNW) 11:45:54 .
SO-50 27 Feb 11:43:33 11:48:24 55° 242° (WSW) 11:53:11 436.795
SPROUT 27 Feb 11:56:04 12:00:16 51° 100° (E) 12:04:27 437.525
DANDE 27 Feb 11:56:55 11:59:24 28° 266° (W) 12:01:42 436.750
HUMSAT D 27 Feb 12:01:37 12:02:26 10° 296° (WNW) 12:03:01 437.325/437.525
TISAT 1 27 Feb 12:13:33 12:17:48 75° 102° (ESE) 12:22:00 437.305
ITUPSAT 1 27 Feb 12:18:18 12:20:02 12° 88° (E) 12:22:04 437.325
ITAMSAT 1 27 Feb 12:23:54 12:27:53 23° 66° (ENE) 12:32:02 435.822/435.867
Oscar 19 27 Feb 12:32:39 12:37:48 81° 74° (ENE) 12:42:58 437.125/150
ESTCUBE 1 27 Feb 12:42:44 12:45:04 14° 296° (WNW) 12:47:13 437.505/2401.250
CUBEBUG 1 27 Feb 12:47:02 12:49:02 13° 296° (WNW) 12:50:48 437.445
Gurwin Techsat 1B 27 Feb 13:12:35 13:17:38 48° 72° (ENE) 13:22:45 435.225
ISS 27 Feb 13:19:16 13:20:07 11° 359° (N) 13:20:59 145.825
SWISSCUBE 27 Feb 13:19:22 13:24:08 60° 101° (E) 13:28:53 437.505
BEESAT 27 Feb 13:28:41 13:33:30 69° 102° (ESE) 13:38:17 436.000
SPROUT 27 Feb 13:33:37 13:35:59 14° 295° (WNW) 13:38:10 437.525
AO-7 27 Feb 13:41:37 13:48:18 29° 58° (ENE) 13:55:12 29.400- 29.500
ITUPSAT 1 27 Feb 13:53:42 13:58:31 68° 285° (WNW) 14:03:18 437.325
ITAMSAT 1 27 Feb 14:02:12 14:07:10 43° 262° (W) 14:12:09 435.822/435.867
HORYU 2 27 Feb 14:03:06 14:07:10 37° 71° (ENE) 14:11:17 437.375
Oscar 19 27 Feb 14:16:14 14:17:53 11° 273° (W) 14:19:10 437.125/150
JAS-2 27 Feb 14:26:59 14:30:56 21° 62° (ENE) 14:35:21 435.910
KKS-1 27 Feb 14:39:44 14:44:12 75° 102° (ESE) 14:48:37 437.445
YUBILEINY 27 Feb 14:39:53 14:44:48 17° 79° (E) 14:50:16 435.215
Gurwin Techsat 1B 27 Feb 14:53:55 14:57:55 21° 268° (W) 15:01:47 435.225
STARS 27 Feb 14:54:36 14:59:00 70° 102° (ESE) 15:03:22 437.465
ISS 27 Feb 14:55:22 14:57:34 17° 19° (NNE) 14:59:48 145.825
SWISSCUBE 27 Feb 14:58:41 15:01:34 15° 296° (WNW) 15:04:15 437.505
BEESAT 27 Feb 15:08:24 15:10:51 14° 297° (WNW) 15:13:04 436.000
MOZHAYETS 4 27 Feb 15:27:23 15:28:38 11° 87° (E) 15:30:12
AO-7 27 Feb 15:32:16 15:40:34 67° 256° (WSW) 15:48:53 29.400- 29.500
HORYU 2 27 Feb 15:40:45 15:44:00 19° 267° (W) 15:47:08 437.375
JAS-2 27 Feb 16:10:27 16:15:38 51° 262° (W) 16:21:20 435.910
KKS-1 27 Feb 16:19:06 16:20:18 11° 297° (WNW) 16:21:16 437.445
M-CUBED/EXP-1 PRIME 27 Feb 16:28:26 16:32:35 78° 107° (ESE) 16:37:05 437.505
ISS 27 Feb 16:31:09 16:34:25 82° 38° (NE) 16:37:39 145.825
YUBILEINY 27 Feb 16:31:50 16:40:33 89° 273° (W) 16:49:25 435.215
AUBIESAT-1 27 Feb 16:33:30 16:37:39 79° 107° (ESE) 16:42:09 437.475
STARS 27 Feb 16:33:30 16:34:58 11° 297° (WNW) 16:36:11 437.465
Cubesat XI-IV 27 Feb 17:01:04 17:06:15 54° 72° (ENE) 17:11:31 437.490
MOZHAYETS 4 27 Feb 17:01:50 17:06:26 68° 285° (WNW) 17:11:03
CUTE-I 27 Feb 17:11:00 17:16:18 66° 74° (ENE) 17:21:39 437.470
BEESAT 3 27 Feb 17:13:37 17:17:07 28° 114° (ESE) 17:20:42 437.485
CUBESAT XI-V 27 Feb 17:15:49 17:17:37 12° 88° (E) 17:19:41 437.345
AIST 1 27 Feb 17:23:50 17:26:20 15° 69° (ENE) 17:29:00
AO-7 27 Feb 17:33:04 17:35:10 11° 276° (W) 17:36:26 29.400- 29.500
STRAND 1 27 Feb 17:34:24 17:36:16 12° 88° (E) 17:38:27 437.568
BEESAT 2 27 Feb 17:34:45 17:38:37 41° 116° (ESE) 17:42:34 435.950
